OBJECT BG, 61789

Orbit data source: Space-Track

You're viewing an Uncataloged Satellite

Recently launched and/or uncataloged satellites may have evolving metadata. Metadata may include but not limited to: Owner, Maufacturer, Bus, Motor, and Mission.

OBJECT BG, 61789 is a satellite in SSO that was launched on Mon, 04 Nov 2024 UTC via a SOYUZ-2-1B launch vehicle from the Vostochny Cosmodrome (VOSTO). Unknown objects in Earth's orbit typically refer to objects detected orbiting the Earth but have not yet been identified or cataloged. These objects could be anything from previously untracked satellites, spent rocket stages, debris from satellite collisions, or even natural meteoroids temporarily captured by Earth's gravity.

Loading next visibility...
Identifier
61789, 2024-199BG
Orbit
SSO
Country
Flag of TBDTBD
Related business
Manufacturer
Sputniks
Mission
Operational Commercial Communications
Bus & Motor
CUBESAT 3U?, Unknown motor
Mass
3 kg wet, 3 kg dry
Launch date (UTC)
2024-11-04 (1 year ago)
Launch vehicle
SOYUZ-2-1B
Launch site
Vostochny Cosmodrome (VOSTO)
Object type
Unknown
Shape & HBR
Box, 0.1 m
Radar Cross Section
0.035 m², Small (<0.1 m²)

Expand to show TLE details & history
Last TLE update: 7 hours ago

TLE from 7 hours ago
0 OBJECT BG
1 61789U 24199BG  26037.86974773  .00005923  00000-0  51668-3 0  9993
2 61789  97.3338 245.5250 0006884 141.1071 219.0648 14.97173931112537
Epoch: 2026-02-06T20:52Z
TLE epoch observation values (Epoch: 2026-02-06T20:52:26.203Z)
Latitude
-0.00008°
Longitude
155.4144°
Altitude
582.413 km
Speed
7.567 km/s
True Right ascension
16h 22m 06s
True Declination
0° 00' 00"
Sunlit
Object was in daylight at epoch
Visualization orbit readout
Latitude
Unknown
Longitude
Unknown
Altitude
Unknown
Speed
Unknown
Apparent Right ascension
Unknown
Apparent Declination
Unknown
Sunlit
N/A
Visualization observer readout
Local Sidereal Time
06:15:54
Azimuth
Unknown
Elevation
Unknown
Doppler factor
Unknown
Orbital elements
Apogee altitude
577.411 km
Perigee altitude
567.842 km
Semi-major axis
6,950.764 km
Eccentricity
0.00069
Inclination
97.3338°
RAAN
245.525°
Arg. of periapsis
141.1071°
True anomaly
219.01512°
Mean anomaly
219.0648°
Eccentric anomaly
219.03996°
Mean motion
3.74537 °/min
Orbital period
96.12 mins
BSTAR
0.00051668
Loading maneuver chart data...
Computing Atmospheric mass density...
Loading historical data...
Loading historical data...
Loading historical data...
Loading historical data...
Loading historical data...
Loading historical data...
Loading historical data...

Documentation

Showing up to 5 results
|